GFSNE_prec_precacc24_150.txt.gz
Total_Precipitation_Accumulation
0.73 0.77 0.83 0.80 0.69 0.53 0.49 0.51 0.39 0.31 0.26 0.20 0.31 0.37 0.39 0.42 0.22 0.13 0.06 0.01 0.01 0.01 0.00 0.01 0.00 0.00 0.01 0.01 0.01 0.01 0.01 0.02 0.01 0.00 0.00 0.00 0.00 0.00
0.70 0.72 0.82 0.98 0.95 1.04 1.15 1.07 1.09 1.02 0.80 0.39 0.33 0.27 0.26 0.25 0.28 0.29 0.16 0.10 0.09 0.05 0.02 0.01 0.01 0.01 0.01 0.01 0.02 0.02 0.04 0.04 0.02 0.01 0.00 0.00 0.00 0.00
0.87 0.76 0.78 0.80 0.95 1.27 1.34 1.35 1.25 1.24 0.99 0.53 0.61 0.53 0.38 0.34 0.32 0.37 0.30 0.18 0.13 0.14 0.07 0.04 0.04 0.04 0.03 0.02 0.01 0.01 0.02 0.06 0.10 0.11 0.09 0.08 0.06 0.03
0.86 0.97 0.98 0.83 0.86 0.80 0.90 1.27 1.19 1.08 1.15 0.97 1.00 1.03 0.85 0.66 0.58 0.48 0.31 0.28 0.16 0.18 0.19 0.13 0.10 0.10 0.11 0.12 0.11 0.10 0.08 0.06 0.06 0.08 0.11 0.13 0.14 0.12
1.04 0.93 0.82 0.99 0.95 0.83 0.77 0.75 0.77 0.87 0.87 0.89 1.06 1.28 1.42 1.10 1.00 1.05 1.03 0.77 0.46 0.27 0.31 0.27 0.21 0.18 0.18 0.22 0.25 0.25 0.24 0.20 0.15 0.13 0.11 0.12 0.13 0.14
0.97 0.99 0.85 0.76 0.88 1.02 1.00 0.95 0.90 0.89 0.79 0.89 1.10 1.27 1.34 1.47 1.27 1.24 1.42 1.27 0.79 0.34 0.22 0.21 0.17 0.15 0.18 0.21 0.23 0.22 0.19 0.20 0.23 0.24 0.22 0.21 0.20 0.21
1.30 1.02 1.12 1.21 1.09 0.97 1.03 1.23 1.27 1.24 1.35 1.32 1.38 1.66 1.51 1.07 1.00 1.09 1.28 1.28 1.05 0.72 0.30 0.17 0.13 0.09 0.09 0.12 0.15 0.17 0.19 0.22 0.22 0.25 0.27 0.27 0.29 0.30
1.58 1.40 1.22 1.19 1.17 1.21 1.25 1.12 1.03 1.15 1.25 1.44 1.53 1.50 1.56 1.54 1.35 1.06 1.05 1.15 1.18 0.93 0.58 0.31 0.18 0.13 0.10 0.10 0.20 0.15 0.15 0.21 0.26 0.27 0.28 0.27 0.27 0.30
1.42 1.46 1.35 1.37 1.20 1.09 1.11 1.07 1.02 1.01 1.05 1.05 1.12 1.25 1.24 1.16 1.05 1.08 0.97 1.04 1.23 1.28 1.09 0.69 0.46 0.35 0.23 0.30 0.43 0.26 0.23 0.23 0.24 0.26 0.28 0.31 0.31 0.29
0.32 0.35 0.33 0.37 0.52 0.56 0.58 0.68 0.80 0.92 0.99 1.00 1.05 1.14 1.11 1.08 1.04 0.96 0.85 0.73 0.66 0.72 0.95 1.02 0.93 0.78 0.61 0.50 0.62 0.39 0.33 0.31 0.28 0.28 0.28 0.27 0.26 0.27
0.08 0.08 0.08 0.09 0.09 0.08 0.07 0.07 0.10 0.16 0.24 0.30 0.33 0.40 0.49 0.46 0.44 0.53 0.72 0.79 0.81 0.65 0.56 0.56 0.52 0.59 0.58 0.50 0.49 0.56 0.45 0.41 0.39 0.38 0.39 0.38 0.35 0.36
0.02 0.04 0.04 0.04 0.04 0.05 0.07 0.07 0.08 0.08 0.06 0.06 0.06 0.05 0.05 0.06 0.08 0.09 0.14 0.22 0.33 0.35 0.31 0.41 0.40 0.41 0.47 0.47 0.40 0.35 0.27 0.33 0.36 0.35 0.35 0.36 0.38 0.32
0.01 0.01 0.01 0.01 0.01 0.01 0.01 0.03 0.05 0.03 0.02 0.02 0.02 0.02 0.03 0.03 0.05 0.06 0.09 0.13 0.18 0.18 0.17 0.24 0.17 0.17 0.25 0.22 0.19 0.21 0.18 0.22 0.23 0.24 0.29 0.35 0.41 0.41
0.01 0.00 0.00 0.00 0.00 0.00 0.00 0.00 0.00 0.00 0.00 0.01 0.01 0.01 0.02 0.04 0.06 0.07 0.09 0.13 0.17 0.20 0.20 0.26 0.24 0.23 0.26 0.24 0.19 0.16 0.16 0.20 0.24 0.27 0.28 0.35 0.39 0.45
0.01 0.00 0.00 0.00 0.00 0.00 0.00 0.00 0.00 0.00 0.00 0.01 0.01 0.01 0.02 0.03 0.03 0.04 0.06 0.09 0.12 0.16 0.17 0.19 0.21 0.23 0.29 0.33 0.30 0.27 0.29 0.29 0.29 0.31 0.34 0.37 0.40 0.42
0.01 0.00 0.00 0.00 0.00 0.00 0.00 0.00 0.00 0.00 0.00 0.01 0.01 0.00 0.00 0.00 0.01 0.02 0.03 0.05 0.07 0.09 0.14 0.19 0.25 0.31 0.35 0.39 0.39 0.40 0.38 0.39 0.42 0.44 0.46 0.49 0.50 0.50
0.00 0.00 0.00 0.00 0.00 0.00 0.00 0.00 0.00 0.00 0.00 0.00 0.00 0.00 0.00 0.00 0.00 0.00 0.01 0.02 0.04 0.07 0.08 0.11 0.15 0.18 0.25 0.31 0.36 0.43 0.43 0.45 0.47 0.47 0.47 0.50 0.53 0.51
0.00 0.00 0.00 0.00 0.01 0.00 0.00 0.00 0.00 0.00 0.01 0.00 0.00 0.00 0.01 0.00 0.00 0.00 0.00 0.00 0.01 0.02 0.03 0.05 0.07 0.09 0.10 0.16 0.22 0.28 0.30 0.32 0.36 0.36 0.35 0.36 0.41 0.47
0.00 0.00 0.01 0.01 0.00 0.00 0.00 0.00 0.01 0.01 0.00 0.00 0.00 0.01 0.01 0.00 0.00 0.00 0.00 0.00 0.00 0.00 0.00 0.01 0.01 0.02 0.04 0.06 0.13 0.17 0.17 0.19 0.22 0.26 0.28 0.28 0.31 0.39
0.00 0.00 0.01 0.00 0.00 0.00 0.01 0.02 0.02 0.01 0.01 0.01 0.01 0.01 0.01 0.01 0.01 0.01 0.00 0.00 0.00 0.00 0.00 0.00 0.01 0.02 0.03 0.04 0.05 0.10 0.14 0.14 0.15 0.16 0.19 0.21 0.24 0.27
0.00 0.00 0.01 0.01 0.01 0.01 0.02 0.02 0.04 0.03 0.01 0.01 0.01 0.01 0.02 0.02 0.01 0.01 0.01 0.00 0.00 0.00 0.00 0.00 0.02 0.02 0.03 0.05 0.07 0.08 0.10 0.14 0.12 0.12 0.13 0.12 0.13 0.17
0.00 0.00 0.01 0.01 0.01 0.01 0.02 0.02 0.02 0.02 0.02 0.02 0.01 0.01 0.02 0.03 0.02 0.01 0.01 0.01 0.01 0.00 0.00 0.00 0.00 0.00 0.02 0.04 0.06 0.07 0.08 0.10 0.10 0.09 0.08 0.09 0.11 0.13
0.00 0.00 0.01 0.01 0.01 0.01 0.01 0.01 0.01 0.02 0.02 0.04 0.02 0.01 0.02 0.02 0.02 0.01 0.01 0.01 0.01 0.00 0.00 0.00 0.00 0.00 0.01 0.02 0.04 0.06 0.06 0.09 0.10 0.11 0.15 0.11 0.11 0.11

GFSNE_prec_precacc24_156.txt.gz
Total_Precipitation_Accumulation
0.75 0.79 0.88 0.83 0.71 0.52 0.43 0.44 0.46 0.31 0.18 0.09 0.25 0.39 0.45 0.53 0.35 0.37 0.37 0.34 0.34 0.29 0.26 0.20 0.14 0.12 0.10 0.07 0.03 0.01 0.01 0.02 0.02 0.01 0.00 0.00 0.00 0.00
0.67 0.66 0.78 0.94 0.87 0.80 0.77 0.64 0.70 0.65 0.48 0.20 0.15 0.15 0.19 0.30 0.39 0.57 0.47 0.38 0.41 0.47 0.51 0.48 0.30 0.21 0.16 0.12 0.08 0.03 0.03 0.04 0.03 0.02 0.00 0.00 0.00 0.00
0.82 0.73 0.72 0.72 0.86 1.03 0.96 0.82 0.76 0.91 0.78 0.51 0.54 0.44 0.35 0.28 0.28 0.40 0.48 0.52 0.57 0.62 0.63 0.70 0.66 0.42 0.22 0.15 0.11 0.07 0.04 0.06 0.10 0.11 0.10 0.08 0.06 0.04
0.69 0.85 0.92 0.78 0.77 0.65 0.72 1.14 1.00 0.87 1.11 0.99 1.04 1.07 0.86 0.66 0.57 0.53 0.49 0.49 0.53 0.61 0.54 0.47 0.46 0.43 0.37 0.25 0.20 0.18 0.16 0.10 0.06 0.07 0.11 0.14 0.14 0.12
0.78 0.82 0.90 1.04 1.05 1.07 0.96 0.75 0.79 0.89 0.86 0.88 1.08 1.28 1.47 1.13 1.09 1.29 1.25 1.05 1.10 0.86 0.67 0.58 0.56 0.61 0.57 0.45 0.39 0.39 0.38 0.31 0.25 0.21 0.16 0.16 0.14 0.15
0.74 0.72 0.74 0.83 1.06 1.26 1.32 1.34 1.08 0.93 0.83 0.88 1.06 1.23 1.30 1.46 1.25 1.27 1.69 1.58 1.27 1.01 0.83 0.85 0.86 0.66 0.60 0.51 0.45 0.33 0.30 0.28 0.30 0.35 0.35 0.32 0.32 0.31
1.12 0.88 0.97 1.15 1.08 1.07 1.16 1.39 1.46 1.36 1.34 1.30 1.33 1.60 1.46 1.04 1.03 1.13 1.32 1.41 1.32 1.16 0.94 0.77 0.74 0.86 0.79 0.60 0.53 0.50 0.39 0.32 0.25 0.28 0.35 0.40 0.42 0.44
1.36 1.27 1.11 1.08 1.08 1.12 1.18 1.11 1.07 1.22 1.21 1.21 1.32 1.31 1.40 1.39 1.20 0.96 1.04 1.22 1.28 1.16 1.05 0.95 0.90 0.81 0.84 0.87 0.96 0.74 0.54 0.50 0.37 0.30 0.28 0.29 0.31 0.36
1.33 1.35 1.27 1.34 1.18 1.06 1.09 1.05 1.01 0.98 1.03 1.03 1.06 1.17 1.17 1.09 0.98 1.02 0.91 1.00 1.30 1.44 1.36 1.17 1.04 1.01 0.95 0.87 0.92 0.87 0.84 0.72 0.54 0.36 0.32 0.31 0.31 0.30
0.32 0.34 0.33 0.37 0.52 0.56 0.58 0.68 0.78 0.87 0.93 0.96 1.04 1.15 1.13 1.06 1.02 0.98 0.86 0.77 0.71 0.83 1.16 1.41 1.43 1.37 1.18 1.07 1.12 0.95 0.86 0.86 0.75 0.51 0.35 0.31 0.29 0.29
0.08 0.08 0.08 0.09 0.08 0.08 0.07 0.07 0.09 0.15 0.19 0.23 0.27 0.34 0.45 0.49 0.50 0.57 0.77 0.84 0.91 0.83 0.76 0.84 0.95 1.22 1.31 1.19 1.05 1.07 1.07 0.98 0.86 0.69 0.51 0.40 0.32 0.30
0.02 0.04 0.03 0.04 0.04 0.05 0.07 0.07 0.08 0.08 0.06 0.05 0.05 0.03 0.03 0.04 0.07 0.10 0.15 0.23 0.39 0.50 0.50 0.58 0.63 0.75 0.89 1.02 1.06 0.94 0.93 1.01 0.96 0.80 0.57 0.44 0.41 0.27
0.01 0.01 0.01 0.01 0.01 0.01 0.01 0.03 0.05 0.03 0.01 0.01 0.01 0.02 0.02 0.01 0.01 0.02 0.04 0.05 0.06 0.10 0.11 0.18 0.21 0.24 0.34 0.37 0.43 0.45 0.47 0.58 0.68 0.70 0.61 0.48 0.39 0.36
0.01 0.00 0.00 0.00 0.00 0.00 0.00 0.00 0.00 0.00 0.00 0.00 0.00 0.01 0.01 0.01 0.01 0.00 0.00 0.01 0.02 0.03 0.02 0.02 0.04 0.06 0.08 0.08 0.07 0.08 0.13 0.15 0.16 0.23 0.30 0.33 0.35 0.36
0.01 0.00 0.00 0.00 0.00 0.00 0.00 0.00 0.00 0.00 0.00 0.00 0.01 0.01 0.00 0.00 0.00 0.00 0.00 0.00 0.01 0.01 0.00 0.00 0.01 0.02 0.04 0.05 0.05 0.03 0.05 0.05 0.05 0.08 0.11 0.14 0.16 0.17
0.01 0.00 0.00 0.00 0.00 0.00 0.00 0.00 0.00 0.00 0.00 0.01 0.01 0.00 0.00 0.00 0.00 0.00 0.00 0.00 0.00 0.00 0.00 0.00 0.01 0.01 0.02 0.02 0.03 0.03 0.05 0.05 0.05 0.07 0.11 0.14 0.16 0.16
0.00 0.00 0.00 0.00 0.00 0.00 0.00 0.00 0.00 0.00 0.00 0.00 0.00 0.00 0.00 0.00 0.00 0.00 0.00 0.00 0.00 0.00 0.00 0.00 0.00 0.00 0.01 0.01 0.02 0.04 0.04 0.04 0.06 0.07 0.08 0.11 0.16 0.19
0.00 0.00 0.00 0.00 0.01 0.01 0.01 0.01 0.00 0.00 0.00 0.00 0.00 0.00 0.00 0.00 0.00 0.00 0.00 0.00 0.00 0.00 0.00 0.00 0.00 0.00 0.00 0.01 0.02 0.03 0.02 0.03 0.04 0.05 0.06 0.09 0.11 0.17
0.00 0.00 0.01 0.01 0.00 0.00 0.00 0.01 0.02 0.01 0.00 0.00 0.00 0.00 0.00 0.00 0.00 0.00 0.00 0.00 0.00 0.00 0.00 0.00 0.00 0.01 0.01 0.01 0.02 0.03 0.03 0.03 0.03 0.05 0.06 0.08 0.10 0.14
0.00 0.00 0.01 0.00 0.00 0.01 0.01 0.01 0.03 0.02 0.02 0.01 0.00 0.00 0.01 0.01 0.01 0.01 0.00 0.00 0.00 0.00 0.00 0.00 0.01 0.02 0.03 0.03 0.03 0.03 0.06 0.06 0.06 0.07 0.08 0.08 0.09 0.11
0.00 0.00 0.00 0.00 0.01 0.01 0.02 0.02 0.03 0.03 0.03 0.03 0.00 0.00 0.01 0.01 0.01 0.01 0.01 0.00 0.00 0.00 0.00 0.00 0.01 0.01 0.02 0.05 0.06 0.06 0.08 0.11 0.10 0.09 0.09 0.09 0.08 0.11
0.00 0.00 0.00 0.00 0.01 0.01 0.01 0.02 0.02 0.02 0.02 0.04 0.01 0.01 0.01 0.01 0.02 0.01 0.01 0.01 0.01 0.00 0.00 0.00 0.00 0.00 0.02 0.04 0.04 0.06 0.07 0.09 0.10 0.09 0.08 0.10 0.14 0.16
0.00 0.00 0.00 0.01 0.01 0.01 0.00 0.01 0.01 0.02 0.02 0.07 0.03 0.00 0.01 0.01 0.02 0.01 0.01 0.01 0.01 0.00 0.00 0.00 0.00 0.00 0.01 0.02 0.04 0.05 0.06 0.09 0.10 0.11 0.15 0.11 0.11 0.11

GFSNE_prec_precacc24_159.txt.gz
Total_Precipitation_Accumulation
0.72 0.76 0.85 0.80 0.70 0.51 0.43 0.45 0.46 0.32 0.18 0.09 0.24 0.37 0.44 0.54 0.38 0.41 0.42 0.40 0.42 0.37 0.33 0.28 0.31 0.33 0.27 0.25 0.20 0.11 0.04 0.05 0.08 0.06 0.02 0.01 0.00 0.00
0.59 0.62 0.75 0.93 0.86 0.79 0.77 0.64 0.70 0.65 0.48 0.19 0.14 0.14 0.19 0.31 0.41 0.58 0.50 0.40 0.47 0.54 0.59 0.57 0.38 0.30 0.27 0.25 0.26 0.19 0.11 0.07 0.07 0.08 0.05 0.02 0.01 0.00
0.73 0.67 0.68 0.70 0.85 1.02 0.94 0.79 0.74 0.88 0.77 0.50 0.53 0.42 0.35 0.29 0.27 0.39 0.46 0.51 0.57 0.64 0.68 0.81 0.77 0.59 0.46 0.43 0.31 0.21 0.16 0.13 0.10 0.10 0.11 0.12 0.09 0.05
0.59 0.78 0.87 0.75 0.74 0.63 0.64 0.95 0.83 0.70 0.90 0.82 0.94 1.05 0.88 0.69 0.61 0.55 0.49 0.49 0.52 0.62 0.56 0.66 0.75 0.65 0.66 0.76 0.82 0.61 0.39 0.28 0.19 0.11 0.09 0.14 0.16 0.15
0.61 0.73 0.82 0.96 0.96 1.02 0.94 0.71 0.70 0.75 0.73 0.78 1.03 1.24 1.52 1.21 1.21 1.38 1.28 1.06 1.10 0.85 0.65 0.59 0.63 0.73 0.70 0.67 0.69 0.66 0.54 0.47 0.41 0.33 0.22 0.14 0.14 0.18
0.47 0.55 0.55 0.61 0.88 1.06 1.22 1.32 1.08 0.89 0.86 0.93 1.05 1.21 1.31 1.52 1.32 1.44 1.84 1.63 1.28 1.02 0.84 0.85 0.86 0.68 0.62 0.56 0.55 0.47 0.42 0.38 0.34 0.33 0.32 0.31 0.29 0.29
0.43 0.48 0.61 0.67 0.63 0.72 0.75 1.03 1.37 1.46 1.47 1.36 1.35 1.60 1.48 1.05 1.10 1.22 1.43 1.54 1.39 1.19 0.94 0.77 0.74 0.86 0.80 0.61 0.53 0.52 0.48 0.44 0.42 0.37 0.36 0.33 0.35 0.39
0.70 0.63 0.58 0.64 0.75 0.78 0.89 0.87 0.91 1.27 1.31 1.34 1.49 1.48 1.49 1.44 1.27 1.02 1.06 1.22 1.25 1.14 1.06 0.97 0.90 0.81 0.85 0.87 0.95 0.76 0.60 0.65 0.59 0.52 0.43 0.37 0.29 0.29
0.83 0.93 0.87 0.97 0.89 0.83 0.86 0.82 0.81 0.88 1.08 1.14 1.14 1.25 1.29 1.18 1.04 1.07 0.97 1.06 1.30 1.42 1.32 1.14 1.03 1.01 0.95 0.88 0.92 0.87 0.89 0.83 0.78 0.65 0.54 0.47 0.39 0.31
0.27 0.30 0.26 0.28 0.40 0.43 0.48 0.61 0.72 0.82 0.91 1.00 1.11 1.24 1.24 1.13 1.08 1.05 0.89 0.78 0.72 0.82 1.08 1.36 1.43 1.38 1.18 1.08 1.12 0.95 0.87 0.91 0.91 0.83 0.67 0.56 0.48 0.40
0.08 0.08 0.08 0.09 0.08 0.08 0.07 0.07 0.09 0.15 0.19 0.23 0.29 0.36 0.46 0.51 0.53 0.59 0.79 0.85 0.92 0.85 0.75 0.81 0.95 1.24 1.32 1.19 1.06 1.06 1.07 0.99 0.89 0.86 0.89 0.75 0.59 0.44
0.02 0.04 0.03 0.04 0.04 0.05 0.07 0.07 0.08 0.08 0.06 0.05 0.05 0.03 0.03 0.04 0.06 0.11 0.17 0.25 0.42 0.53 0.53 0.61 0.67 0.78 0.91 1.04 1.08 0.96 0.95 1.02 0.98 0.87 0.71 0.73 0.72 0.51
0.01 0.01 0.01 0.00 0.01 0.01 0.01 0.03 0.05 0.03 0.01 0.01 0.01 0.02 0.02 0.01 0.01 0.02 0.03 0.05 0.07 0.12 0.12 0.19 0.22 0.27 0.38 0.41 0.48 0.50 0.51 0.62 0.73 0.77 0.74 0.70 0.63 0.64
0.01 0.00 0.00 0.00 0.00 0.00 0.00 0.00 0.00 0.00 0.00 0.00 0.00 0.01 0.01 0.01 0.01 0.00 0.00 0.01 0.02 0.02 0.01 0.02 0.05 0.07 0.09 0.09 0.08 0.09 0.14 0.15 0.17 0.24 0.38 0.49 0.56 0.59
0.01 0.00 0.00 0.00 0.00 0.00 0.00 0.00 0.00 0.00 0.00 0.00 0.00 0.01 0.00 0.00 0.00 0.00 0.00 0.00 0.01 0.01 0.00 0.00 0.01 0.01 0.03 0.04 0.04 0.03 0.03 0.03 0.02 0.04 0.08 0.14 0.21 0.25
0.01 0.00 0.00 0.00 0.00 0.00 0.00 0.00 0.00 0.00 0.00 0.00 0.00 0.00 0.00 0.00 0.00 0.00 0.00 0.00 0.00 0.00 0.00 0.00 0.01 0.01 0.01 0.01 0.02 0.02 0.03 0.02 0.01 0.02 0.03 0.03 0.05 0.06
0.00 0.00 0.00 0.00 0.00 0.00 0.00 0.00 0.00 0.00 0.00 0.00 0.00 0.00 0.00 0.00 0.00 0.00 0.00 0.00 0.00 0.00 0.00 0.00 0.00 0.00 0.00 0.01 0.01 0.03 0.03 0.01 0.02 0.02 0.02 0.02 0.02 0.02
0.00 0.00 0.00 0.00 0.01 0.01 0.01 0.01 0.00 0.01 0.00 0.00 0.00 0.00 0.00 0.00 0.00 0.00 0.00 0.00 0.00 0.00 0.00 0.00 0.00 0.00 0.00 0.00 0.01 0.02 0.01 0.01 0.02 0.02 0.02 0.04 0.02 0.03
0.00 0.00 0.01 0.01 0.00 0.00 0.00 0.01 0.02 0.02 0.01 0.00 0.00 0.00 0.00 0.00 0.00 0.00 0.00 0.00 0.00 0.00 0.00 0.00 0.00 0.01 0.01 0.01 0.01 0.02 0.02 0.02 0.02 0.02 0.03 0.04 0.04 0.05
0.00 0.00 0.01 0.01 0.01 0.01 0.01 0.01 0.03 0.02 0.02 0.01 0.00 0.00 0.00 0.00 0.01 0.01 0.00 0.00 0.00 0.00 0.00 0.00 0.00 0.01 0.03 0.03 0.03 0.02 0.03 0.05 0.06 0.05 0.05 0.05 0.05 0.05
0.00 0.00 0.00 0.01 0.01 0.01 0.02 0.02 0.03 0.03 0.03 0.03 0.00 0.00 0.01 0.01 0.01 0.01 0.01 0.00 0.00 0.00 0.00 0.00 0.00 0.00 0.02 0.04 0.05 0.04 0.05 0.07 0.07 0.07 0.06 0.07 0.06 0.07
0.00 0.00 0.00 0.00 0.01 0.01 0.01 0.02 0.02 0.02 0.03 0.05 0.01 0.01 0.00 0.01 0.01 0.01 0.01 0.01 0.01 0.00 0.00 0.00 0.00 0.00 0.01 0.03 0.02 0.04 0.04 0.06 0.08 0.07 0.07 0.08 0.13 0.14
0.00 0.00 0.00 0.01 0.01 0.01 0.00 0.01 0.01 0.02 0.03 0.07 0.03 0.00 0.00 0.01 0.01 0.01 0.01 0.01 0.01 0.00 0.00 0.00 0.00 0.00 0.01 0.01 0.02 0.04 0.04 0.06 0.08 0.10 0.15 0.10 0.09 0.10

GFSNE_prec_precacc24_162.txt.gz
Total_Precipitation_Accumulation
0.36 0.56 0.67 0.66 0.64 0.49 0.42 0.45 0.47 0.33 0.18 0.09 0.24 0.37 0.44 0.54 0.38 0.41 0.42 0.40 0.42 0.37 0.37 0.32 0.34 0.42 0.60 0.82 0.76 0.41 0.14 0.12 0.13 0.11 0.07 0.04 0.12 0.09
0.16 0.25 0.51 0.75 0.75 0.70 0.72 0.60 0.68 0.64 0.48 0.20 0.14 0.14 0.18 0.31 0.42 0.59 0.52 0.43 0.46 0.54 0.62 0.62 0.43 0.33 0.29 0.30 0.40 0.41 0.24 0.12 0.09 0.12 0.10 0.06 0.03 0.09
0.18 0.27 0.29 0.46 0.67 0.92 0.86 0.72 0.67 0.84 0.75 0.50 0.53 0.42 0.36 0.29 0.31 0.44 0.49 0.52 0.56 0.62 0.66 0.83 0.85 0.68 0.55 0.49 0.36 0.33 0.32 0.28 0.19 0.13 0.11 0.10 0.09 0.07
0.20 0.26 0.41 0.48 0.54 0.48 0.54 0.88 0.80 0.67 0.87 0.81 0.94 1.04 0.88 0.71 0.64 0.63 0.56 0.51 0.53 0.64 0.58 0.70 0.80 0.71 0.74 0.86 0.89 0.93 0.77 0.68 0.59 0.40 0.20 0.09 0.08 0.07
0.38 0.44 0.50 0.69 0.76 0.88 0.83 0.65 0.67 0.72 0.68 0.75 1.02 1.23 1.53 1.27 1.26 1.46 1.41 1.12 1.11 0.88 0.67 0.62 0.68 0.81 0.76 0.72 0.73 0.78 0.77 0.67 0.68 0.81 0.75 0.41 0.15 0.11
0.24 0.27 0.27 0.33 0.60 0.88 1.05 1.22 1.01 0.80 0.74 0.80 0.96 1.16 1.26 1.53 1.36 1.49 1.96 1.74 1.34 1.03 0.85 0.87 0.88 0.71 0.70 0.62 0.57 0.51 0.47 0.49 0.45 0.43 0.47 0.57 0.64 0.49
0.16 0.11 0.16 0.20 0.28 0.36 0.55 0.86 1.13 1.14 1.14 1.03 1.04 1.27 1.21 0.94 1.19 1.34 1.52 1.69 1.60 1.31 0.96 0.78 0.75 0.86 0.80 0.62 0.53 0.51 0.49 0.46 0.49 0.48 0.46 0.43 0.46 0.56
0.48 0.32 0.25 0.20 0.19 0.30 0.39 0.49 0.61 0.83 0.88 0.99 1.23 1.26 1.30 1.26 1.06 1.05 1.20 1.29 1.35 1.36 1.28 1.07 0.94 0.84 0.86 0.87 0.94 0.74 0.59 0.64 0.60 0.58 0.53 0.50 0.44 0.36
0.62 0.66 0.53 0.54 0.41 0.35 0.43 0.44 0.45 0.56 0.79 0.87 0.85 1.04 1.20 1.19 1.12 1.10 1.05 1.19 1.44 1.54 1.41 1.27 1.19 1.12 0.98 0.86 0.84 0.81 0.84 0.82 0.77 0.65 0.56 0.52 0.50 0.49
0.17 0.18 0.15 0.15 0.21 0.21 0.24 0.34 0.46 0.59 0.69 0.81 0.96 1.08 1.13 1.14 1.15 1.15 0.99 0.91 0.86 0.95 1.16 1.41 1.47 1.45 1.20 1.08 1.07 0.93 0.86 0.90 0.90 0.82 0.67 0.56 0.49 0.46
0.06 0.06 0.07 0.07 0.06 0.07 0.06 0.06 0.07 0.12 0.16 0.21 0.29 0.38 0.48 0.52 0.61 0.70 0.89 0.96 1.02 0.94 0.81 0.86 1.00 1.27 1.33 1.20 1.05 1.03 1.05 0.98 0.88 0.86 0.89 0.75 0.61 0.49
0.02 0.03 0.03 0.03 0.03 0.04 0.05 0.06 0.07 0.07 0.05 0.05 0.05 0.04 0.04 0.05 0.07 0.14 0.23 0.33 0.50 0.60 0.59 0.67 0.71 0.81 0.93 1.05 1.09 0.96 0.95 1.00 0.98 0.86 0.71 0.73 0.73 0.55
0.00 0.00 0.00 0.00 0.01 0.01 0.01 0.02 0.04 0.02 0.01 0.01 0.01 0.02 0.02 0.01 0.02 0.02 0.04 0.06 0.08 0.15 0.15 0.21 0.24 0.29 0.40 0.43 0.48 0.50 0.51 0.62 0.73 0.77 0.74 0.70 0.63 0.67
0.02 0.00 0.00 0.00 0.00 0.00 0.00 0.00 0.00 0.00 0.00 0.00 0.00 0.01 0.01 0.01 0.01 0.00 0.00 0.01 0.02 0.02 0.01 0.02 0.04 0.07 0.09 0.08 0.09 0.09 0.14 0.15 0.17 0.25 0.38 0.50 0.56 0.60
0.01 0.00 0.00 0.00 0.00 0.00 0.00 0.00 0.00 0.00 0.00 0.00 0.00 0.00 0.00 0.00 0.00 0.00 0.00 0.00 0.01 0.01 0.00 0.00 0.00 0.01 0.02 0.03 0.04 0.03 0.03 0.03 0.02 0.04 0.08 0.15 0.21 0.24
0.01 0.00 0.00 0.00 0.00 0.00 0.00 0.00 0.00 0.00 0.00 0.00 0.00 0.00 0.00 0.00 0.00 0.00 0.00 0.00 0.00 0.00 0.00 0.00 0.00 0.01 0.01 0.01 0.02 0.02 0.02 0.02 0.01 0.01 0.02 0.03 0.05 0.06
0.00 0.00 0.00 0.00 0.00 0.00 0.00 0.00 0.00 0.00 0.00 0.00 0.00 0.00 0.00 0.00 0.00 0.00 0.00 0.00 0.00 0.00 0.00 0.00 0.00 0.00 0.00 0.00 0.01 0.03 0.02 0.01 0.01 0.01 0.01 0.02 0.01 0.01
0.00 0.00 0.00 0.01 0.01 0.01 0.00 0.01 0.01 0.01 0.00 0.00 0.00 0.00 0.00 0.00 0.00 0.00 0.00 0.00 0.00 0.00 0.00 0.00 0.00 0.00 0.00 0.00 0.01 0.02 0.01 0.01 0.01 0.01 0.01 0.03 0.02 0.02
0.00 0.00 0.01 0.01 0.00 0.00 0.00 0.01 0.03 0.02 0.01 0.00 0.00 0.00 0.00 0.00 0.00 0.00 0.00 0.00 0.00 0.00 0.00 0.00 0.00 0.00 0.00 0.00 0.01 0.01 0.01 0.01 0.01 0.01 0.02 0.03 0.03 0.03
0.00 0.00 0.01 0.01 0.01 0.01 0.01 0.01 0.03 0.02 0.02 0.01 0.00 0.00 0.00 0.00 0.00 0.00 0.00 0.00 0.00 0.00 0.00 0.00 0.00 0.00 0.01 0.01 0.01 0.01 0.00 0.02 0.04 0.03 0.03 0.03 0.03 0.02
0.00 0.00 0.00 0.01 0.01 0.01 0.02 0.02 0.03 0.03 0.03 0.03 0.00 0.00 0.00 0.00 0.00 0.00 0.01 0.00 0.00 0.00 0.00 0.00 0.00 0.00 0.00 0.02 0.03 0.02 0.03 0.02 0.03 0.04 0.03 0.05 0.04 0.04
0.00 0.00 0.00 0.01 0.01 0.01 0.01 0.02 0.02 0.02 0.03 0.05 0.01 0.01 0.00 0.00 0.01 0.01 0.01 0.01 0.01 0.00 0.00 0.00 0.00 0.00 0.00 0.02 0.01 0.02 0.02 0.03 0.03 0.03 0.03 0.05 0.10 0.12
0.00 0.00 0.00 0.01 0.01 0.01 0.00 0.01 0.01 0.02 0.03 0.07 0.03 0.00 0.00 0.01 0.01 0.01 0.01 0.01 0.01 0.00 0.00 0.00 0.00 0.00 0.00 0.01 0.01 0.02 0.02 0.03 0.04 0.06 0.11 0.05 0.04 0.05